Regional Weather Roundup
Issued by NWS Sioux Falls, SD

Home | Current Version | Previous Version | Graphics & Text | Print | Product List | Glossary On
Versions: 1 2 3 4 5 6 7 8 9 10 11 12 13 14 15 16 17 18 19 20 21 22 23 24 25 26 27 28 29 30 31 32 33 34 35 36 37 38 39 40 41 42 43 44 45 46 47 48 49 50
000
ASUS43 KFSD 191510
RWRFSD

WEATHER ROUNDUP FOR SE SOUTH DAKOTA/SW MINNESOTA/NW IOWA
NATIONAL WEATHER SERVICE SIOUX FALLS SD
900 AM CST SUN FEB 19 2017

NOTE: "FAIR" INDICATES FEW OR NO CLOUDS BELOW 12,000 FEET WITH NO
SIGNIFICANT WEATHER AND OR OBSTRUCTIONS TO VISIBILITY.


SDZ038>040-050-052>070-191600-
SOUTHEAST SOUTH DAKOTA

CITY           SKY/WX    TMP DP  RH WIND       PRES   REMARKS
BROOKINGS      MOSUNNY   42  36  79 SE17      29.76F
CHAMBERLAIN    CLOUDY    40  37  87 E5        29.66S
HURON          MOSUNNY   43  36  76 SE13      29.70S
MADISON        FAIR      37  37 100 S12       29.76F
MITCHELL       MOSUNNY   42  36  79 SE14      29.72R
SIOUX FALLS    CLOUDY    46  38  73 SE9       29.79F
WINNER         FAIR      50  37  61 S10       29.63F
YANKTON        SUNNY     43  36  75 E9        29.76S
$$

MNZ071-072-080-081-089-090-097-098-191600-
SOUTHWEST MINNESOTA

CITY           SKY/WX    TMP DP  RH WIND       PRES   REMARKS
FAIRMONT       MOSUNNY   39  39 100 S10       29.91F
JACKSON        CLOUDY    43  36  75 S16       29.88F
LUVERNE        CLOUDY    41  34  75 S10       29.81F
MARSHALL       CLOUDY    46  37  71 S15       29.81F
MONTEVIDEO     MOSUNNY   39  39 100 S12       29.83F
PIPESTONE      MOSUNNY   45  34  65 S14       29.79F
REDWOOD FALLS  MOSUNNY   40  36  86 SE12      29.86F
TRACY          CLOUDY    46  39  75 S15G23    29.82F
WINDOM         CLOUDY    46  37  71 SE17      29.86F
WORTHINGTON    CLOUDY    42  36  79 S13       29.85F
$$

IAZ001>003-012>014-020>022-031-032-NEZ013-014-SDZ071-191600-
NORTHWEST IOWA

CITY           SKY/WX    TMP DP  RH WIND       PRES   REMARKS
CHEROKEE       SUNNY     44  39  83 S7        29.88S
DENISON        MOSUNNY   46  41  81 CALM      29.88F
ESTHERVILLE    CLOUDY    38  38 100 S14       29.89F
LE MARS        SUNNY     46  39  76 S10       29.85F
SHELDON        SUNNY     43  41  93 SE9       29.83F
SIOUX CITY     CLOUDY    42  36  79 SE13      29.85F
SPENCER        SUNNY     42  37  82 SE10      29.88F
STORM LAKE     SUNNY     41  37  87 SE12      29.89F
$$

ABBREVIATIONS USED IN REMARKS
   TC - TEMPERATURE IN CELSIUS
  WCI - WIND CHILL INDEX
   HX - HEAT INDEX
  VSB - VISIBILITY




USA.gov is the U.S. government's official web portal to all federal, state and local government web resources and services.